Wind_Speed
45 44 43 42 43 44 45 46 47 48 49 49 50 51 51 51 51 50 51 51 52 54 55 55 54 54 54 54 52 51 49 47 45 44 43 42 41 40 40 39 37 34 32
45 45 44 44 44 45 47 48 49 50 51 52 53 53 54 54 54 54 54 54 54 55 56 57 57 57 56 56 56 55 54 52 49 47 45 43 43 42 41 41 39 38 35
45 45 45 45 46 47 48 49 50 51 51 52 53 54 55 55 56 56 55 56 56 56 57 59 60 61 60 59 58 57 57 56 54 51 49 47 45 44 43 41 41 40 38
45 45 46 46 46 47 48 49 49 50 51 52 53 54 55 55 55 55 56 57 56 57 58 59 61 62 63 62 62 60 59 59 58 56 53 49 49 47 45 43 42 41 40
45 46 46 46 46 47 49 49 49 49 50 50 51 51 51 52 53 54 55 55 56 56 57 58 60 62 63 65 64 63 62 61 61 58 57 54 52 49 48 45 44 43 41
46 46 46 46 47 48 49 48 47 47 48 48 48 48 48 49 51 52 52 52 53 54 55 56 57 59 60 64 65 66 65 63 62 62 60 58 56 52 51 48 45 45 43
46 45 45 46 47 47 47 45 45 45 46 44 44 44 44 44 45 47 47 48 48 50 52 53 54 56 57 59 62 64 66 65 65 64 62 61 58 56 54 52 47 45 45
46 45 45 46 46 46 45 45 43 43 42 41 40 39 39 39 40 41 43 44 44 45 47 49 50 50 52 53 56 58 61 63 64 66 65 63 60 57 54 52 52 49 44
45 45 46 46 45 45 44 42 40 39 38 37 36 34 32 32 32 34 37 40 40 41 42 44 45 46 47 48 50 53 55 58 61 63 64 64 61 59 57 55 52 49 45
45 45 46 45 44 43 41 39 38 37 36 34 32 29 27 25 25 27 29 32 35 36 38 39 41 43 43 44 44 46 48 50 54 57 59 61 61 59 57 55 53 50 47
44 45 45 44 43 40 38 37 36 35 34 31 28 25 21 20 19 20 22 25 28 30 33 34 36 38 40 40 39 40 42 44 46 49 51 54 57 58 56 55 53 50 47
44 44 44 43 41 38 36 35 34 33 31 28 25 22 19 16 15 15 18 21 25 27 30 31 32 33 35 36 36 36 37 39 41 43 46 48 51 53 54 54 52 49 47
43 43 42 40 38 36 35 34 33 32 29 26 23 20 17 15 14 14 15 18 21 25 27 28 29 30 32 33 33 33 33 34 36 39 42 44 46 47 49 49 49 47 46
42 40 39 38 36 35 34 33 32 30 28 25 21 18 15 12 10 10 12 15 19 22 25 26 26 27 28 29 30 30 30 30 32 35 38 41 43 44 46 46 46 46 45
40 38 38 37 35 34 33 32 30 29 26 23 20 16 13 10 8 7 10 13 17 22 24 24 25 26 26 27 27 28 28 29 30 33 36 38 40 42 43 44 43 45 45
38 37 36 36 34 33 32 30 29 27 25 22 19 16 12 8 6 6 8 12 16 20 22 23 24 24 24 25 25 26 27 27 29 33 35 36 38 40 41 42 42 44 44
37 35 34 34 33 32 30 29 27 26 24 22 19 16 11 7 4 4 6 9 13 18 21 23 24 23 23 23 24 24 24 26 28 32 33 35 37 39 40 41 41 42 43
35 34 33 32 32 31 29 28 27 26 24 22 20 16 12 8 4 1 3 7 11 16 19 21 22 22 22 22 22 22 23 25 28 31 34 35 36 38 40 41 41 42 42
34 33 32 31 30 29 28 27 27 26 24 22 20 16 13 9 6 3 1 5 9 13 16 19 20 21 22 22 21 21 22 25 27 31 34 35 36 38 40 40 41 42 41
32 31 30 29 28 28 27 26 26 26 24 22 19 16 13 10 7 5 2 3 7 10 13 15 17 19 20 20 21 21 22 24 27 30 33 34 35 38 40 41 41 41 40
30 29 28 27 27 27 26 25 25 25 23 21 19 17 14 11 8 6 3 1 5 8 12 14 15 17 18 19 19 21 22 24 27 30 32 34 36 39 40 40 40 40 39
28 27 26 25 25 25 25 24 24 24 22 21 20 18 15 11 9 6 4 1 2 6 9 12 14 15 16 16 18 20 22 25 27 29 31 34 37 39 38 38 38 39 38
26 25 24 23 23 23 22 23 23 23 22 22 21 19 16 13 11 8 6 3 3 4 6 10 12 14 15 16 17 20 22 25 26 29 32 35 36 36 36 37 37 37 36
23 23 22 21 21 20 21 21 21 22 21 21 21 20 19 17 14 12 10 7 5 5 7 8 10 12 14 15 16 18 23 25 27 30 32 32 32 33 35 35 35 35 35
21 20 19 19 19 19 19 19 19 19 20 20 20 20 19 18 16 15 13 12 11 10 10 11 12 14 16 16 17 18 23 26 27 29 30 29 30 32 33 33 33 32 31
20 18 17 16 16 16 17 17 16 17 18 19 19 19 19 19 18 17 15 15 15 16 16 16 16 17 19 19 20 20 22 25 27 28 29 29 30 31 31 30 29 27 27
Wind_Direction
311 308 305 301 299 297 294 291 289 286 283 280 278 276 274 271 268 265 261 259 256 253 251 247 245 242 240 240 239 237 235 235 234 233 233 232 231 230 229 229 229 230 232
312 310 306 303 301 298 296 293 290 287 284 280 277 275 272 270 268 265 262 259 256 253 250 247 245 242 241 239 238 237 236 234 233 233 233 232 232 231 229 229 229 230 232
313 310 307 305 303 301 299 296 293 290 286 282 279 275 272 269 267 264 261 259 256 253 250 247 244 242 241 239 238 238 237 235 233 233 232 231 232 233 230 230 230 230 231
315 312 309 307 306 304 302 300 296 293 289 285 281 277 273 269 266 263 260 257 254 251 249 246 244 242 240 239 238 237 236 235 233 232 233 232 232 234 233 232 231 230 231
316 314 312 309 308 307 305 302 300 297 294 289 284 279 274 269 265 261 258 255 252 250 248 245 243 241 240 239 238 237 236 236 234 232 232 232 232 233 235 234 233 231 231
319 317 315 313 312 311 309 306 303 301 297 293 288 282 276 271 266 261 256 253 250 247 245 244 242 240 239 238 238 237 236 235 235 233 232 232 233 233 234 235 234 232 232
322 320 319 317 316 314 313 310 308 305 302 298 293 287 280 272 265 259 254 252 249 246 243 242 241 239 238 237 237 236 236 235 235 234 233 231 233 234 235 234 232 232 232
325 323 321 320 319 318 316 314 312 310 307 302 297 291 284 275 266 258 252 248 246 243 240 239 238 238 237 236 236 236 235 235 235 235 234 232 231 231 231 233 234 233 233
327 325 324 323 322 321 320 318 317 315 313 309 304 297 289 279 269 259 251 244 240 238 236 235 235 235 235 235 234 235 235 235 234 235 235 234 231 230 230 230 231 231 232
329 328 327 327 325 325 324 323 322 321 319 315 310 303 294 282 272 261 250 241 235 233 231 231 231 231 231 232 232 233 234 235 234 233 233 234 233 230 230 230 230 232 233
331 330 330 330 329 328 328 327 326 325 323 320 316 310 302 289 277 261 247 237 230 228 225 225 227 227 227 227 227 229 231 232 232 231 230 231 231 230 229 229 231 231 232
334 334 334 333 333 333 332 331 331 330 328 326 321 315 307 295 277 261 245 234 227 223 221 221 221 222 222 221 222 224 225 227 228 227 226 226 227 227 227 228 230 230 230
337 337 337 338 338 338 337 336 336 335 333 330 326 321 312 297 281 263 244 233 224 218 216 216 215 216 217 218 220 221 222 223 225 225 223 222 222 222 221 223 225 226 226
339 340 341 342 342 342 342 341 340 340 338 334 329 324 317 304 284 261 236 226 216 211 211 211 210 210 213 215 218 220 221 222 222 221 219 217 216 216 216 218 221 221 221
341 342 343 345 345 346 346 345 345 344 343 341 337 330 321 307 284 256 231 219 212 209 209 208 208 209 212 214 216 217 218 219 219 217 213 212 211 211 213 213 215 217 218
343 343 345 347 349 350 350 350 350 350 350 349 346 342 332 316 287 256 230 219 213 209 206 206 206 208 210 211 213 215 217 218 216 211 209 208 208 208 209 209 211 213 214
345 345 347 350 352 353 355 356 357 357 356 356 356 355 353 348 323 259 233 219 211 206 205 206 207 209 211 211 212 213 215 215 212 208 205 203 202 204 205 206 208 209 211
346 348 349 352 354 356 357 359 1 360 360 0 2 4 6 10 14 358 224 212 206 203 204 207 209 210 211 211 211 212 213 212 209 206 201 199 199 200 202 202 202 204 205
347 350 351 353 355 357 358 360 1 1 2 3 5 9 9 8 7 2 252 205 201 205 206 208 210 211 210 210 210 210 210 209 207 204 200 200 198 198 198 199 199 200 202
347 350 352 355 357 359 359 0 1 3 5 6 8 9 7 6 3 356 326 210 203 204 205 207 209 210 210 210 209 208 207 207 205 201 199 200 196 194 194 195 196 197 199
347 349 353 356 358 0 1 2 3 5 7 7 8 8 9 13 14 11 7 242 208 205 206 205 205 205 207 207 208 206 205 204 200 196 195 193 190 188 188 190 193 194 195
347 348 351 355 358 360 2 5 6 7 10 10 10 10 13 14 12 16 26 72 195 200 203 202 201 202 204 205 203 202 201 199 194 192 187 185 185 185 185 187 190 191 192
346 348 351 355 359 2 4 7 9 12 14 16 18 19 19 20 25 33 45 81 130 153 173 182 190 193 194 195 195 195 195 193 190 186 182 181 181 183 185 187 190 191 192
343 346 350 353 358 2 5 9 12 16 20 22 23 24 26 30 37 46 55 72 98 127 146 162 170 178 180 182 181 179 181 181 180 178 178 178 179 181 184 185 186 188 191
341 343 347 352 357 2 7 10 13 18 21 23 26 30 35 40 47 56 64 73 84 102 117 125 133 145 153 153 156 163 169 171 172 172 173 175 176 179 183 185 184 186 188
337 339 343 350 357 1 5 11 16 20 24 28 32 36 41 47 55 61 70 79 86 94 104 113 118 126 133 138 142 150 157 160 162 167 171 172 174 176 177 178 179 182 188
Height
5738 5732 5726 5722 5717 5712 5708 5704 5700 5697 5694 5691 5689 5687 5687 5687 5688 5689 5691 5694 5697 5700 5705 5709 5715 5720 5726 5732 5739 5745 5751 5757 5764 5770 5775 5781 5785 5790 5796 5801 5806 5811 5815
5727 5720 5714 5709 5704 5699 5694 5689 5685 5681 5677 5674 5672 5670 5669 5669 5669 5671 5673 5676 5679 5683 5688 5693 5699 5705 5711 5717 5724 5731 5738 5745 5751 5758 5764 5770 5775 5780 5786 5792 5798 5803 5807
5716 5709 5703 5696 5690 5685 5679 5674 5668 5664 5660 5656 5653 5651 5650 5650 5650 5651 5653 5657 5660 5665 5670 5675 5681 5688 5695 5701 5709 5716 5724 5731 5738 5746 5753 5759 5764 5769 5776 5782 5788 5794 5799
5705 5698 5691 5684 5677 5671 5664 5658 5652 5646 5641 5637 5634 5631 5630 5629 5630 5631 5633 5636 5641 5646 5651 5657 5663 5670 5677 5684 5692 5700 5709 5716 5724 5732 5740 5747 5754 5759 5766 5772 5779 5785 5790
5694 5686 5679 5671 5664 5657 5649 5642 5635 5629 5623 5618 5613 5610 5609 5608 5609 5610 5613 5616 5621 5626 5632 5638 5644 5651 5659 5667 5675 5684 5692 5701 5710 5718 5727 5734 5742 5748 5756 5762 5768 5775 5781
5683 5675 5667 5659 5651 5643 5635 5627 5619 5613 5606 5600 5595 5591 5589 5588 5589 5590 5593 5597 5601 5607 5613 5620 5626 5633 5641 5649 5658 5667 5676 5685 5695 5704 5713 5721 5730 5737 5744 5750 5758 5765 5772
5673 5664 5655 5647 5639 5630 5621 5613 5605 5597 5590 5583 5577 5573 5570 5569 5569 5571 5574 5578 5584 5590 5596 5602 5609 5617 5625 5633 5641 5650 5660 5669 5679 5689 5698 5708 5717 5726 5733 5740 5747 5754 5761
5663 5654 5645 5636 5627 5618 5609 5600 5592 5583 5576 5568 5562 5557 5554 5552 5552 5554 5558 5562 5568 5575 5581 5587 5594 5601 5610 5618 5626 5634 5642 5653 5664 5674 5685 5694 5703 5712 5721 5729 5736 5743 5751
5654 5645 5635 5626 5617 5607 5598 5589 5580 5572 5564 5556 5550 5545 5541 5539 5538 5540 5543 5548 5555 5561 5567 5574 5581 5589 5597 5605 5613 5621 5629 5637 5646 5657 5668 5678 5688 5698 5708 5716 5725 5733 5742
5645 5636 5627 5617 5607 5597 5588 5579 5571 5562 5554 5547 5541 5535 5532 5529 5529 5530 5532 5537 5543 5550 5556 5563 5570 5578 5585 5593 5601 5609 5617 5624 5633 5643 5653 5664 5675 5685 5695 5705 5714 5723 5731
5638 5628 5619 5608 5599 5589 5580 5571 5563 5555 5547 5540 5534 5529 5525 5523 5522 5523 5525 5529 5535 5540 5547 5554 5561 5568 5576 5584 5591 5599 5606 5613 5622 5631 5641 5651 5662 5673 5683 5694 5704 5713 5722
5631 5621 5612 5601 5592 5582 5574 5565 5557 5549 5541 5534 5528 5524 5520 5518 5517 5518 5520 5523 5528 5534 5540 5546 5553 5560 5568 5576 5583 5590 5597 5604 5612 5621 5629 5640 5650 5661 5672 5682 5693 5703 5712
5625 5615 5606 5596 5586 5577 5568 5560 5552 5544 5537 5530 5524 5520 5517 5515 5514 5514 5516 5519 5523 5529 5534 5541 5547 5554 5561 5569 5576 5583 5589 5596 5604 5611 5620 5629 5639 5650 5660 5671 5682 5692 5701
5620 5610 5601 5592 5582 5573 5565 5557 5549 5541 5534 5527 5522 5518 5514 5512 5511 5511 5513 5516 5520 5525 5531 5537 5543 5549 5557 5563 5570 5577 5583 5589 5596 5603 5611 5619 5629 5639 5650 5661 5672 5683 5692
5616 5607 5598 5588 5579 5571 5562 5554 5546 5539 5532 5526 5521 5516 5513 5511 5510 5510 5512 5514 5518 5523 5528 5534 5540 5546 5553 5559 5565 5571 5576 5582 5588 5595 5603 5611 5620 5631 5641 5652 5663 5673 5684
5612 5603 5595 5586 5577 5569 5561 5553 5545 5538 5531 5525 5520 5515 5512 5510 5509 5510 5511 5513 5516 5520 5526 5531 5537 5543 5549 5554 5560 5565 5570 5576 5581 5588 5595 5604 5613 5623 5633 5644 5654 5665 5675
5609 5601 5593 5584 5576 5568 5560 5553 5546 5539 5532 5526 5521 5516 5513 5511 5510 5510 5511 5512 5515 5519 5523 5529 5534 5540 5545 5550 5555 5560 5565 5570 5575 5581 5589 5597 5607 5616 5626 5637 5647 5657 5667
5607 5599 5591 5584 5576 5568 5561 5554 5547 5540 5534 5528 5523 5518 5515 5513 5511 5511 5511 5512 5514 5517 5521 5526 5531 5536 5540 5545 5550 5555 5560 5565 5570 5577 5584 5592 5601 5610 5620 5630 5641 5651 5661
5606 5598 5591 5583 5576 5569 5562 5555 5549 5542 5536 5531 5525 5521 5518 5515 5514 5513 5512 5513 5514 5516 5519 5523 5527 5532 5537 5541 5546 5551 5556 5561 5566 5572 5580 5587 5595 5605 5615 5625 5635 5646 5655
5605 5598 5591 5584 5577 5570 5563 5557 5551 5544 5538 5533 5528 5524 5521 5518 5516 5515 5513 5513 5514 5516 5518 5521 5525 5529 5533 5538 5543 5548 5553 5558 5563 5569 5576 5583 5591 5600 5610 5621 5631 5641 5651
5604 5598 5591 5585 5578 5572 5565 5559 5553 5547 5541 5536 5531 5527 5523 5520 5518 5516 5515 5514 5514 5515 5518 5520 5524 5527 5531 5536 5540 5545 5550 5555 5561 5567 5573 5580 5588 5598 5608 5618 5627 5637 5646
5604 5598 5592 5586 5580 5574 5568 5562 5556 5550 5544 5539 5534 5530 5526 5522 5520 5518 5516 5515 5515 5516 5517 5520 5523 5526 5530 5534 5539 5544 5549 5554 5560 5565 5572 5579 5587 5597 5606 5615 5624 5634 5643
5604 5598 5592 5587 5581 5576 5570 5564 5559 5553 5548 5543 5538 5533 5529 5525 5522 5519 5518 5517 5517 5517 5518 5520 5523 5526 5530 5533 5538 5542 5548 5553 5559 5565 5572 5580 5588 5597 5606 5615 5623 5632 5640
5603 5598 5593 5588 5583 5577 5573 5568 5562 5557 5552 5547 5542 5538 5533 5529 5526 5523 5521 5520 5520 5520 5520 5522 5524 5527 5531 5534 5538 5542 5548 5554 5560 5567 5574 5582 5590 5598 5606 5614 5622 5630 5638
5603 5598 5594 5589 5584 5580 5575 5570 5566 5561 5557 5552 5547 5543 5538 5534 5531 5529 5526 5525 5524 5524 5524 5526 5528 5531 5534 5538 5542 5546 5551 5557 5563 5569 5577 5584 5592 5600 5607 5615 5622 5630 5637
5602 5598 5594 5590 5586 5582 5578 5573 5569 5565 5561 5557 5553 5549 5545 5541 5538 5535 5533 5532 5531 5531 5531 5533 5535 5537 5540 5544 5548 5552 5556 5562 5567 5574 5581 5587 5595 5602 5609 5616 5623 5629 5636